Location: Monroe
(41.9160°N, 83.3980°W)
Time: 05:04:17
(UTC-04:00)

ISS - Visible Passes

Search period start: 30 July 2014 00:00
Search period end: 09 August 2014 00:00
Orbit: 411 x 419 km, 51.6° (Epoch: 30 July)

Date Brightness Start Highest point End Pass type
(mag) Time Alt. Az. Time Alt. Az. Time Alt. Az.
30 Jul -0.4 02:57:03 14° NNW 02:58:05 16° N 03:00:16 10° NE visible
30 Jul -0.5 04:33:09 10° NW 04:35:44 20° NNE 04:38:18 10° ENE visible
31 Jul -0.2 02:09:55 16° N 02:09:55 16° N 02:11:24 10° NE visible
31 Jul -0.3 03:44:21 10° NW 03:46:40 17° N 03:49:00 10° NE visible
31 Jul -2.1 05:20:45 10° NW 05:24:01 45° NNE 05:27:16 10° ESE visible
01 Aug -0.2 02:55:45 11° NNW 02:57:35 16° N 02:59:44 10° NE visible
01 Aug -1.3 04:32:01 10° NW 04:35:05 31° NNE 04:38:07 10° E visible
02 Aug -0.1 02:09:02 15° N 02:09:02 15° N 02:10:36 10° NE visible
02 Aug -0.8 03:43:17 10° NW 03:46:05 24° NNE 03:48:52 10° ENE visible
02 Aug -3.4 05:19:43 10° WNW 05:23:04 72° SW 05:26:25 10° SE visible
02 Aug -2.5 22:02:23 10° SSW 22:05:19 30° SE 22:08:01 12° ENE visible
02 Aug -1.6 23:38:50 10° W 23:41:09 32° WNW 23:41:09 32° WNW visible
03 Aug -0.5 02:56:19 18° N 02:57:02 19° NNE 02:59:33 10° ENE visible
03 Aug -2.9 04:30:53 10° NW 04:34:14 67° NNE 04:37:34 10° ESE visible
03 Aug -2.7 22:49:45 10° WSW 22:53:02 58° NNW 22:56:21 10° NE visible
04 Aug -0.4 00:27:51 10° WNW 00:30:00 18° NNW 00:30:00 18° NNW visible
04 Aug -1.8 03:46:04 35° ENE 03:46:04 35° ENE 03:48:32 10° E visible
04 Aug -2.3 05:19:15 11° W 05:21:54 26° SW 05:24:45 10° SSE visible
04 Aug -3.4 22:00:51 10° SW 22:04:10 84° SE 22:07:31 10° ENE visible
04 Aug -0.7 23:38:31 10° WNW 23:41:13 22° NNW 23:43:49 11° NE visible
05 Aug 0.2 01:16:42 10° NW 01:16:43 10° NW 01:16:43 10° NW visible
05 Aug -3.0 21:12:09 10° SW 21:15:21 47° SE 21:18:34 10° ENE visible
05 Aug -1.2 22:49:13 10° W 22:52:11 29° NNW 22:55:09 10° NE visible
06 Aug -0.2 00:27:35 10° NW 00:29:42 16° N 00:29:48 16° N visible
06 Aug -1.9 22:00:01 10° W 22:03:11 40° NNW 22:06:22 10° NE visible
06 Aug -0.3 23:38:19 10° NW 23:40:34 17° N 23:42:41 11° NNE visible
07 Aug -0.5 22:48:59 10° WNW 22:51:27 19° NNW 22:53:55 10° NE visible
08 Aug -0.1 00:26:53 10° NW 00:28:18 15° N 00:28:18 15° N visible
08 Aug -0.8 21:59:37 10° WNW 22:02:21 23° NNW 22:05:06 10° NE visible
08 Aug -0.4 23:37:51 10° NW 23:39:57 15° N 23:41:02 14° NNE visible
